Regional Weather Roundup
Issued by NWS Grand Forks, ND

Home | Current Version | Previous Version | Graphics & Text | Print | Product List | Glossary On
Versions: 1 2 3 4 5 6 7 8 9 10 11 12 13 14 15 16 17 18 19 20 21 22 23 24 25 26 27 28 29 30 31 32 33 34 35 36 37 38 39 40 41 42 43 44 45 46 47 48 49 50
000
ASUS43 KFGF 011731
RWRFGF
PRAIRIE TO PINES  WEATHER ROUNDUP
NATIONAL WEATHER SERVICE EASTERN NORTH DAKOTA/GRAND FORKS ND
1200 PM CDT SUN MAY 01 2016

 **SATELLITE DATA USED TO AUGMENT SKY COVER AT AUTOMATED STATIONS**
 *****  WEATHER ACROSS EASTERN NORTH DAKOTA  *****

CITY           SKY/WX    TMP DP  RH WIND       PRES   REMARKS
GRAND FORKS    SUNNY     60  29  30 NE10      30.27F
GRAND FRKS AFB SUNNY     59  27  28 E7        30.27F
DEVILS LAKE    SUNNY     56  26  31 E3        30.30F
FARGO          SUNNY     58  30  34 NW6       30.26F
WAHPETON ARPT  SUNNY     55  28  35 N8G16     30.24F
$$

 ***** WEATHER ACROSS CENTRAL AND WESTERN NORTH DAKOTA  *****

CITY           SKY/WX    TMP DP  RH WIND       PRES   REMARKS
BISMARCK       SUNNY     57  28  33 NW7       30.31F
MINOT          SUNNY     62  25  24 SW3       30.30F
JAMESTOWN      SUNNY     57  28  33 VRB3      30.27F
MINOT AFB      SUNNY     57  27  32 VRB3      30.29F
GARRISON         N/A     58  29  33 SW6       30.30F
WILLISTON      SUNNY     60  29  30 VRB3      30.31F
DICKINSON      SUNNY     56  27  32 N10G17    30.29F
HETTINGER      SUNNY     56  29  35 VRB5G17   30.32F
$$

 *****  OTHER AIRPORT OBSERVATIONS IN OUR AREA  *****

CITY           SKY/WX    TMP DP  RH WIND       PRES   REMARKS
WALHALLA       FAIR      59  28  31 NE7       30.28F
GRAFTON AIRPOR FAIR      59  27  29 VRB7G14   30.29F HAZE
VALLEY CITY AR FAIR      57  30  35 NE6       30.28F
CANDO          FAIR      61  25  25 N6        30.30F
CAVALIER APRT  FAIR      59  30  33 NE7       30.27F
GWINNER        FAIR      57  32  38 N13       30.26F
SHEYENNE NWR     N/A     56  30  37 N7        29.95S
ROLLA          FAIR      57  23  26 NE6       30.29F
 ***** THE ABOVE OBSERVATIONS ARE NON NWS ARE NOT QUALITY
       CONTROLLED AND MAY MIS-REPORT RAIN FOR SNOW...
$$

  *****  WEATHER ACROSS NORTHERN MINNESOTA  *****

CITY           SKY/WX    TMP DP  RH WIND       PRES   REMARKS
FLAG ISLAND    SUNNY     46  37  71 CALM      30.27F
WARROAD        SUNNY     52  37  58 E5        30.28F
ROSEAU         SUNNY     57  32  38 E6        30.26F
HALLOCK        SUNNY     61  21  21 NE8       30.26F
THF RVR FALLS  SUNNY     57  27  30 NE7       30.27F
BAUDETTE       SUNNY     57  27  31 E9        30.27F
WASKISH        SUNNY     57  30  35 NE7       30.25F
CROOKSTON      SUNNY     59  28  31 NE9       30.27S
STEPHEN NDAWN    N/A     59  28  31 E6          N/A
GREENBUSH NDAW   N/A     57  28  33 E6          N/A
$$
  *****  WEATHER ACROSS CENTRAL AND WEST MINNESOTA  *****

CITY           SKY/WX    TMP DP  RH WIND       PRES   REMARKS
FOSSTON        SUNNY     57  36  44 NE8       30.25F
BEMIDJI        SUNNY     54  30  39 N6        30.24F
PARK RAPIDS    SUNNY     54  27  35 NE13G20   30.23F
ELBOW LAKE     FAIR      53  32  45 NE13      30.23F
WADENA         SUNNY     54  30  40 NE13G20   30.21F
DETROIT LAKES  SUNNY     54  30  40 NE5       30.24F
MOORHEAD       SUNNY     57  28  33 NE9       30.26F
FERGUS FALLS   SUNNY     55  30  38 NE7G18    30.21F
MORRIS MN      SUNNY     55  34  44 NE13G20   30.21F
STAPLES        SUNNY     54  27  35 N12G18    30.21F
$$
  *****  WEATHER ELSEWHERE ACROSS MINNESOTA  *****

CITY           SKY/WX    TMP DP  RH WIND       PRES   REMARKS
DULUTH         MOSUNNY   48  36  63 SE14      30.22F
INTRNTL FALLS  SUNNY     51  30  44 N9        30.26F
ELY            SUNNY     52  30  43 N6        30.22F
CLOQUET        SUNNY     48  36  61 E8        30.22S
WHEATON        SUNNY     57  34  41 N10G17    30.25F
BRAINERD       SUNNY     54  29  38 N13       30.22F
HIBBING        SUNNY     52  30  43 N6        30.22F
ALEXANDRIA     SUNNY     53  31  42 NE15G23   30.22F
SAINT CLOUD    PTSUNNY   53  33  46 NE14G20   30.19F
MINNEAPOLIS    PTSUNNY   56  37  49 N9G18     30.15F
$$

  *****  WEATHER ACROSS SOUTH DAKOTA  *****

CITY           SKY/WX    TMP DP  RH WIND       PRES   REMARKS
SIOUX FALLS    PTSUNNY   49  40  71 N14       30.19S
BROOKINGS      SUNNY     50  35  56 NE16G24   30.19F
WATERTOWN      SUNNY     53  31  42 NE18G25   30.21F
HURON          SUNNY     53  33  46 NE14      30.24S
SISSETON         N/A     56  29  35 NE15G28   30.24F
ABERDEEN       SUNNY     56  30  37 NE18G26   30.27F
MITCHELL       SUNNY     52  40  63 N16       30.23S
PIERRE         SUNNY     55  35  47 N12       30.27F
MOBRIDGE       SUNNY     57  34  41 NE9       30.27F
RAPID CITY     MOSUNNY   51  30  44 N14G24    30.32S
$$

  *****  SOME WEATHER IN NEARBY STATES *****

CITY           SKY/WX    TMP DP  RH WIND       PRES   REMARKS
GLASGOW MT     SUNNY     58  32  37 SW6       30.32F
GREAT FALLS MT SUNNY     52  34  50 CALM      30.32F
CHEYENNE WY    PTSUNNY   35  24  64 N13       30.32S
SCOTTSBLUFF NE CLOUDY    48  29  47 N14       30.33S
OMAHA NE       LGT RAIN  47  44  90 N14       30.10R
DES MOINES IA  LGT RAIN  46  43  89 NE9       30.04R FOG
DAVENPORT IA   CLOUDY    49  46  90 E14       30.00S
CHICAGO IL     CLOUDY    46  44  93 NE16      30.00S FOG
EAU CLAIRE WI  SUNNY     58  33  39 NE13      30.11F
LA CROSSE WI   CLOUDY    55  37  50 NE7G17    30.08F
$$

  *****  SOME NATIONAL WEATHER *****

CITY           SKY/WX    TMP DP  RH WIND       PRES   REMARKS
LA GUARDIA NY  LGT RAIN  49  42  77 SE13      30.17F
RALEIGH NC     CLOUDY    67  65  93 S10G22    30.08F
ATLANTA GA     PTSUNNY   80  67  64 SW12      30.03F
NEW ORLEANS LA TSTM      71  69  93 N9        29.99F FOG
OKLAHOMA CITY  MOSUNNY   58  42  55 N17       30.10R
ALBUQUERQUE NM PTSUNNY   47  30  51 E30G41    30.09R
SALT LAKE CITY PTSUNNY   57  23  26 NE20G29   30.06F
LOS ANGELES CA MOSUNNY   64  51  62 VRB3      29.93R
BOISE ID       SUNNY     58  40  51 CALM      30.15F
SEATTLE WA     MOSUNNY   63  48  58 N8        30.18F
$$

*** WEATHER ACROSS MANITOBA...SASKATCHEWAN AND ONTARIO ***
                ***ONTARIO***

CITY           SKY/WX    TMP DP  RH WIND       PRES   REMARKS
GERALDTON      CLOUDY    45  34  65 VRB7      30.27F
THUNDER BAY    MOSUNNY   54  36  50 E10       30.25F
SIOUX LOOKOUT  MOSUNNY   52  32  46 SW6       30.26F
TORONTO        DRIZZLE   48  46  93 NE12      29.98S FOG
BIG TROUT LK   SUNNY     46  30  53 SW8       30.23F
PICKLE LAKE    MOSUNNY   52  27  37 CALM      30.24F
DRYDEN         SUNNY     54  25  32 NE8       30.26F
KENORA         SUNNY     55  27  33 VRB2      30.27F
$$
                *** MANITOBA***

CITY           SKY/WX    TMP DP  RH WIND       PRES   REMARKS
BRANDON        SUNNY     61  27  27 W7        30.29F
DAUPHIN        SUNNY     64  28  25 VRB8      30.25F
ISLAND LAKE    PTSUNNY   59  32  36 E3        30.19F
PILOT MOUND      N/A     59  25  27 W3          N/A
THE PAS        CLOUDY    54  32  43 NE6       30.13F
THOMPSON       PTSUNNY   66  30  26 S12G18    30.06F
WINNIPEG       SUNNY     63  30  29 VRB3      30.27F
LYNN LAKE      CLOUDY    52  45  76 NW6       30.04F
CHURCHILL      PTSUNNY   43  34  70 S13       30.05F
GILLAM         MOSUNNY   59  34  38 NE6       30.08F
$$
                ***SASKATCHEWAN***

CITY           SKY/WX    TMP DP  RH WIND       PRES   REMARKS
ESTEVAN        MOSUNNY   63  28  27 VRB6      30.30F
KINDERSLEY     PTSUNNY   63  36  36 W10G17    30.25F
LLOYDMINSTER   PTSUNNY   64  34  32 SW13      30.18F
PRINCE ALBERT  PTSUNNY   68  37  32 W15G23    30.13F
REGINA         MOSUNNY   66  27  22 NW8G17    30.26F
YORKTON        SUNNY     63  30  29 SW13G20   30.24F
N. BATTLEFORD  SUNNY     66  34  30 NW12      30.21F
LA RONGE       MOSUNNY   64  36  34 NW10      30.09F
SASKATOON      PTSUNNY   66  36  32 W12       30.21F
SWIFT CURRENT  SUNNY     61  32  33 W8        30.27F
$$
NOTE: THESE ARE AUTOMATED STATIONS WITH LIMITED QUALITY CONTROL
      "FAIR" INDICATES FEW OR NO CLOUDS BELOW 12,000 FEET WITH NO
      SIGNIFICANT WEATHER AND/OR OBSTRUCTIONS TO VISIBILITY.
      SKY/WX - SKY CONDITION AND SIGNIFICANT WEATHER.
      TMP - AIR TEMPERATURE.    DP   - DEWPOINT TEMPERATURE.
      RH  - RELATIVE HUMIDITY.  PRES - PRESSURE.
      HX  - HEAT INDEX.         WCI  - WIND CHILL INDEX.
$




USA.gov is the U.S. government's official web portal to all federal, state and local government web resources and services.